Location: New Plymouth
(39.0670°S, 174.0830°E)
Time: 22:22:39
(UTC+12:00)

Atlas Centaur 2 - Pass Details

Date: 24 January 2019
Orbit: 459 x 1311 km, 30.4° (Epoch: 21 April)

Event Time Altitude Azimuth Distance (km) Brightness Sun altitude
Rises 22:22:11 0° 289° (WNW) 4,194 6.2 -16.2°
Reaches altitude 10° 22:25:10 10° 295° (WNW) 3,284 5.5 -16.6°
Maximum altitude 22:33:09 46° 4° (N) 1,698 3.4 -17.8°
Enters shadow 22:37:42 25° 61° (ENE) 2,328 3.9 -18.4°
